Location: Unspecified
(48.2082°N, 0.0000°E)
Time: 00:40:11
(UTC+00:00)

Altair - Pass Details

Date: 25 June 2019
Orbit: 1501 x 1683 km, 47.2° (Epoch: 21 July)

Event Time Altitude Azimuth Distance (km) Brightness Sun altitude
Rises 23:47:34 0° 284° (WNW) 4,796 10.3 -18.3°
Reaches altitude 10° 23:50:38 10° 282° (WNW) 3,834 9.8 -18.3°
Maximum altitude 00:00:22 69° 202° (SSW) 1,745 7.5 -18.4°
Drops below altitude 10° 00:10:23 10° 122° (ESE) 3,934 9.3 -18.4°
Sets 00:13:34 0° 120° (ESE) 4,927 9.9 -18.3°
